Location: D�pe
(52.6057°N, 8.1808°E)
Time: 06:37:20
(UTC+00:00)

ERS-2 - Pass Details

Date: 29 October 2020
Orbit: 493 x 497 km, 98.6° (Epoch: 01 December)

Event Time Altitude Azimuth Distance (km) Brightness Sun altitude
Rises 17:09:39 0° 16° (NNE) 2,591 5.5 -10.7°
Reaches altitude 10° 17:11:44 10° 18° (NNE) 1,704 4.6 -11.0°
Maximum altitude 17:15:24 78° 104° (ESE) 513 2.0 -11.6°
Drops below altitude 10° 17:19:02 10° 192° (SSW) 1,690 5.1 -12.1°
Sets 17:21:06 0° 194° (SSW) 2,569 6.0 -12.4°
